User: anonymous   Login
Location: Unspecified
(0.0000°N, 0.0000°E)
Time: 05:57:58
(UTC+00:00)
Language:

TIGRISAT - Orbit

View from above orbital plane
View from above orbital plane
View from above satellite
View from above satellite

Ground track
Ground track

The orbit data is extracted from the following two-line orbital elements,

1 40043U 14033AK  19083.56272255  .00000102  00000-0  22562-4 0  9991
2 40043  97.7707 315.0062 0060485  16.1573 344.1546 14.74238308255912
Epoch (UTC): 24 March 2019 13:30:19
Eccentricity: 0.0060485
inclination: 97.7707°
perigee height: 605 km
apogee height: 690 km
right ascension of ascending node: 315.0062°
argument of perigee: 16.1573°
revolutions per day: 14.74238308
mean anomaly at epoch: 344.1546°
orbit number at epoch: 25591

The dashed part of the orbit path shows where the satellite is in the earth's shadow,  

DLR